Regional Weather Roundup
Issued by NWS State College, PA

Home | Current Version | Previous Version | Text Only | Print | Product List | Glossary On
Versions: 1 2 3 4 5 6 7 8 9 10 11 12 13 14 15 16 17 18 19 20 21 22 23 24 25 26 27 28 29 30 31 32 33 34 35 36 37 38 39 40 41 42 43 44 45 46 47 48 49 50
000
ASUS41 KCTP 180703
RWRCTP

REGIONAL WEATHER ROUNDUP
NATIONAL WEATHER SERVICE STATE COLLEGE PA
200 AM EST WED JAN 18 2017

Note: "fair" indicates few or no clouds below 12,000 feet with no
significant weather and/or obstructions to visibility.

* = STATION THAT DOES NOT REPORT PRECIPITATION /E.G. RAIN...SNOW...ETC/
    THUNDER OR FOG.

PAZ002>004-007>009-013>016-020>023-029>032-180800-
WESTERN PENNSYLVANIA

CITY           SKY/WX    TMP DP  RH WIND       PRES   REMARKS
ERIE           CLOUDY    38  37  97 SW16G24   29.90R FOG
MEADVILLE      CLOUDY    41  38  89 W12       29.89R
FRANKLIN*        N/A     43  39  87 NW8       29.90R
NEW CASTLE     LGT RAIN  46  43  89 W7        29.92R
BEAVER COUNTY  NOT AVBL
BUTLER*        CLOUDY    46  39  76 W12G18    29.93S
PITTSBURGH INT CLOUDY    48  42  80 W12       29.91S
PITTSBURGH     CLOUDY    49  40  71 W12G21    29.91S
INDIANA*       CLOUDY    48  45  87 NW10      29.91R
LATROBE        LGT RAIN  48  48 100 SW8       29.92R
WASHINGTON CO* NOT AVBL
$$

PAZ004>006-010>012-017>019-024>028-033>037-041-042-045-046-049>053-180800-
CENTRAL PENNSYLVANIA

CITY           SKY/WX    TMP DP  RH WIND       PRES   REMARKS
BRADFORD       CLOUDY    42  41  96 W10       29.83R
DUBOIS         CLOUDY    45  41  86 W14       29.85R
CLEARFIELD     FOG       37  36  96 CALM      29.86R VSB 1/2
JOHNSTOWN      LGT RAIN  46  44  93 W18G29    29.85R
ALTOONA        CLOUDY    37  36  96 SE6       29.86S FOG
STATE COLLEGE  SNOW      34  34 100 CALM      29.88R VSB 1/4
WILLIAMSPORT   CLOUDY    38  36  92 CALM      29.89S FOG
SELINSGROVE    LGT RAIN  35  35 100 CALM      29.91R VSB 1/4
FT INDIANTOWN  CLOUDY    37  37 100 CALM      29.90S FOG
CAPITAL CITY   CLOUDY    39  36  89 E3        29.90S FOG
HARRISBURG     CLOUDY    38  38 100 CALM      29.89F FOG
YORK           FOG       40  40 100 CALM      29.89R VSB 1/2
$$

PAZ038>040-043-044-047-048-054-055-060>062-067>071-180800-
EASTERN PENNSYLVANIA

CITY           SKY/WX    TMP DP  RH WIND       PRES   REMARKS
SCRANTON       CLOUDY    37  36  96 SE5       29.87F
MOUNT POCONO   CLOUDY    33  31  92 E5        29.85F FOG
ALLENTOWN      RAIN      37  35  92 NE6       29.91S FOG
QUAKERTOWN*    CLOUDY    37  37 100 CALM      29.91R
READING        LGT RAIN  38  36  92 N5        29.90R VSB 1
LANCASTER      CLOUDY    39  39 100 NE6       29.89S
COATESVILLE    CLOUDY    39  39 100 NE5       29.89S FOG
POTTSTOWN      CLOUDY    38  38 100 CALM      29.91S FOG
BLUE BELL      CLOUDY    37  37 100 CALM      29.89R
DOYLESTOWN     CLOUDY    39  39 100 NE6       29.89R FOG
WILLOW GROVE   NOT AVBL
NORTH PHILA    CLOUDY    42  41  96 N8        29.91S
PHILADELPHIA   CLOUDY    43  42  97 N5        29.90R FOG
$$



USA.gov is the U.S. government's official web portal to all federal, state and local government web resources and services.